Total_Precipitation_Accumulation
0.00 0.05 0.12 0.15 0.21 0.10 0.00 0.00 0.00 0.00 0.00 0.00 0.00 0.00 0.00 0.00 0.01 0.05 0.02 0.00 0.00 0.01 0.01 0.04 0.08 0.05 0.03 0.05 0.12 0.22 0.26 0.31 0.35 0.37 0.37 0.16 0.07 0.06 0.08 0.11 0.14 0.14 0.09 0.08 0.12 0.16 0.15 0.12 0.14
0.01 0.07 0.21 0.30 0.26 0.02 0.00 0.00 0.00 0.00 0.00 0.00 0.00 0.00 0.00 0.00 0.00 0.00 0.00 0.02 0.01 0.01 0.05 0.12 0.14 0.09 0.07 0.09 0.18 0.26 0.33 0.39 0.44 0.44 0.31 0.08 0.05 0.08 0.11 0.15 0.19 0.13 0.05 0.04 0.07 0.11 0.10 0.09 0.12
0.02 0.04 0.20 0.35 0.09 0.00 0.00 0.00 0.00 0.00 0.00 0.00 0.00 0.00 0.00 0.00 0.00 0.00 0.00 0.00 0.00 0.02 0.10 0.21 0.20 0.16 0.13 0.15 0.24 0.34 0.40 0.39 0.43 0.41 0.20 0.07 0.06 0.09 0.15 0.20 0.16 0.08 0.03 0.02 0.03 0.06 0.05 0.05 0.06
0.03 0.12 0.27 0.21 0.02 0.00 0.00 0.00 0.00 0.00 0.00 0.00 0.00 0.00 0.00 0.00 0.00 0.00 0.00 0.00 0.01 0.02 0.07 0.14 0.19 0.18 0.17 0.21 0.29 0.32 0.29 0.31 0.39 0.32 0.19 0.09 0.12 0.14 0.16 0.13 0.07 0.03 0.02 0.02 0.01 0.03 0.04 0.04 0.05
0.06 0.24 0.31 0.11 0.01 0.00 0.00 0.00 0.00 0.00 0.00 0.00 0.00 0.00 0.00 0.00 0.00 0.00 0.00 0.00 0.01 0.01 0.02 0.06 0.15 0.15 0.14 0.21 0.28 0.29 0.23 0.29 0.34 0.31 0.24 0.13 0.15 0.17 0.18 0.10 0.03 0.02 0.02 0.02 0.02 0.01 0.02 0.03 0.05
0.20 0.38 0.37 0.12 0.01 0.00 0.00 0.00 0.00 0.00 0.00 0.00 0.00 0.00 0.01 0.00 0.00 0.00 0.00 0.00 0.00 0.00 0.01 0.03 0.10 0.11 0.12 0.18 0.23 0.25 0.24 0.29 0.28 0.22 0.19 0.18 0.14 0.16 0.13 0.07 0.03 0.01 0.02 0.05 0.02 0.01 0.02 0.03 0.06
0.37 0.50 0.41 0.13 0.01 0.00 0.00 0.00 0.00 0.00 0.00 0.00 0.00 0.00 0.01 0.01 0.00 0.00 0.00 0.00 0.00 0.00 0.00 0.02 0.04 0.07 0.11 0.16 0.18 0.22 0.25 0.28 0.25 0.12 0.13 0.19 0.10 0.09 0.06 0.03 0.01 0.01 0.02 0.04 0.02 0.01 0.02 0.05 0.08
0.22 0.43 0.49 0.19 0.02 0.00 0.00 0.00 0.00 0.00 0.00 0.00 0.00 0.00 0.01 0.01 0.00 0.00 0.00 0.00 0.01 0.02 0.02 0.02 0.02 0.04 0.08 0.13 0.16 0.15 0.16 0.20 0.18 0.10 0.12 0.16 0.09 0.06 0.04 0.01 0.00 0.01 0.02 0.04 0.02 0.02 0.04 0.06 0.08
0.15 0.24 0.27 0.18 0.05 0.01 0.00 0.00 0.00 0.00 0.00 0.00 0.00 0.00 0.00 0.00 0.00 0.00 0.00 0.01 0.02 0.04 0.07 0.05 0.02 0.02 0.06 0.13 0.16 0.19 0.19 0.21 0.18 0.13 0.15 0.12 0.08 0.06 0.04 0.02 0.01 0.02 0.05 0.06 0.03 0.03 0.04 0.03 0.05
0.23 0.23 0.13 0.09 0.05 0.02 0.00 0.00 0.00 0.00 0.00 0.00 0.00 0.00 0.00 0.00 0.00 0.00 0.00 0.00 0.02 0.04 0.08 0.08 0.06 0.03 0.02 0.08 0.16 0.23 0.20 0.15 0.15 0.13 0.13 0.12 0.08 0.09 0.04 0.06 0.07 0.03 0.05 0.06 0.04 0.04 0.02 0.00 0.00
0.19 0.15 0.09 0.08 0.04 0.01 0.00 0.00 0.00 0.00 0.00 0.00 0.00 0.00 0.00 0.00 0.00 0.00 0.00 0.00 0.01 0.03 0.05 0.05 0.03 0.02 0.02 0.07 0.15 0.19 0.21 0.20 0.23 0.14 0.13 0.08 0.05 0.03 0.02 0.05 0.08 0.05 0.06 0.04 0.04 0.03 0.02 0.02 0.00
0.14 0.07 0.08 0.06 0.02 0.01 0.00 0.00 0.00 0.00 0.00 0.00 0.00 0.00 0.00 0.00 0.00 0.00 0.00 0.00 0.00 0.02 0.02 0.03 0.04 0.04 0.03 0.02 0.06 0.09 0.11 0.13 0.15 0.14 0.10 0.05 0.04 0.03 0.04 0.05 0.10 0.08 0.03 0.03 0.05 0.04 0.04 0.04 0.01
0.07 0.03 0.03 0.03 0.01 0.01 0.00 0.00 0.00 0.00 0.00 0.00 0.00 0.00 0.00 0.00 0.00 0.00 0.00 0.01 0.01 0.02 0.03 0.04 0.05 0.06 0.07 0.03 0.03 0.03 0.04 0.07 0.14 0.18 0.11 0.04 0.02 0.04 0.07 0.08 0.14 0.10 0.04 0.05 0.08 0.03 0.03 0.04 0.01
0.08 0.04 0.04 0.03 0.02 0.01 0.01 0.00 0.00 0.00 0.00 0.00 0.00 0.00 0.00 0.00 0.00 0.00 0.01 0.01 0.01 0.08 0.14 0.15 0.13 0.14 0.10 0.06 0.05 0.06 0.04 0.05 0.10 0.12 0.09 0.04 0.02 0.03 0.07 0.06 0.08 0.05 0.06 0.08 0.04 0.04 0.05 0.05 0.01
0.03 0.03 0.03 0.01 0.01 0.00 0.00 0.00 0.00 0.00 0.00 0.00 0.00 0.00 0.00 0.00 0.00 0.00 0.00 0.01 0.02 0.08 0.17 0.25 0.24 0.23 0.16 0.11 0.09 0.09 0.06 0.05 0.08 0.13 0.10 0.06 0.03 0.04 0.07 0.05 0.04 0.05 0.08 0.07 0.07 0.10 0.07 0.07 0.02
0.04 0.05 0.03 0.02 0.01 0.01 0.01 0.00 0.01 0.02 0.02 0.02 0.01 0.00 0.00 0.00 0.00 0.00 0.00 0.02 0.03 0.07 0.17 0.24 0.23 0.28 0.24 0.18 0.12 0.14 0.10 0.09 0.13 0.14 0.15 0.12 0.07 0.04 0.08 0.07 0.05 0.11 0.14 0.11 0.09 0.07 0.06 0.07 0.04
0.05 0.05 0.04 0.04 0.05 0.04 0.05 0.03 0.04 0.05 0.04 0.03 0.02 0.01 0.00 0.00 0.00 0.00 0.00 0.01 0.01 0.06 0.13 0.14 0.18 0.37 0.36 0.28 0.30 0.29 0.25 0.27 0.28 0.27 0.28 0.25 0.14 0.09 0.11 0.10 0.06 0.09 0.17 0.16 0.11 0.09 0.11 0.06 0.05
0.13 0.07 0.07 0.08 0.09 0.09 0.10 0.09 0.09 0.09 0.06 0.04 0.03 0.02 0.01 0.00 0.00 0.00 0.00 0.01 0.02 0.07 0.12 0.15 0.21 0.30 0.43 0.56 0.57 0.56 0.53 0.49 0.52 0.53 0.51 0.36 0.27 0.20 0.17 0.14 0.09 0.09 0.18 0.24 0.17 0.19 0.16 0.14 0.11
0.12 0.09 0.08 0.11 0.11 0.09 0.09 0.09 0.09 0.09 0.08 0.06 0.04 0.03 0.01 0.01 0.01 0.00 0.00 0.01 0.03 0.07 0.11 0.14 0.28 0.38 0.51 0.61 0.65 0.74 0.79 0.79 0.79 0.78 0.75 0.60 0.42 0.35 0.30 0.21 0.21 0.19 0.23 0.33 0.33 0.37 0.33 0.24 0.13
0.08 0.08 0.08 0.09 0.09 0.07 0.06 0.05 0.05 0.05 0.06 0.06 0.05 0.04 0.02 0.02 0.01 0.01 0.01 0.03 0.04 0.05 0.09 0.14 0.25 0.41 0.54 0.66 0.72 0.71 0.81 0.85 0.81 0.85 0.83 0.81 0.66 0.53 0.45 0.35 0.38 0.30 0.36 0.54 0.52 0.50 0.45 0.33 0.20
0.08 0.08 0.08 0.07 0.06 0.05 0.03 0.02 0.02 0.02 0.03 0.03 0.03 0.03 0.03 0.02 0.02 0.01 0.00 0.01 0.01 0.03 0.06 0.11 0.19 0.32 0.48 0.60 0.60 0.53 0.52 0.60 0.63 0.63 0.66 0.73 0.79 0.77 0.69 0.62 0.58 0.48 0.44 0.60 0.66 0.63 0.55 0.44 0.29
0.09 0.08 0.07 0.06 0.06 0.05 0.04 0.04 0.01 0.01 0.01 0.01 0.02 0.02 0.02 0.02 0.02 0.01 0.00 0.00 0.00 0.01 0.03 0.05 0.13 0.16 0.20 0.26 0.28 0.28 0.27 0.40 0.54 0.56 0.57 0.59 0.71 0.81 0.82 0.80 0.78 0.63 0.48 0.50 0.59 0.64 0.60 0.57 0.42
0.04 0.04 0.04 0.05 0.07 0.07 0.05 0.07 0.02 0.00 0.01 0.01 0.01 0.01 0.01 0.01 0.01 0.01 0.01 0.01 0.02 0.02 0.02 0.03 0.04 0.03 0.05 0.09 0.14 0.14 0.13 0.23 0.38 0.41 0.42 0.50 0.63 0.68 0.67 0.73 0.79 0.72 0.60 0.58 0.66 0.71 0.72 0.59 0.48
0.01 0.02 0.03 0.04 0.04 0.04 0.03 0.05 0.03 0.01 0.01 0.01 0.01 0.01 0.01 0.01 0.02 0.02 0.03 0.02 0.02 0.02 0.02 0.01 0.01 0.01 0.02 0.04 0.07 0.06 0.07 0.16 0.23 0.33 0.42 0.56 0.67 0.64 0.58 0.63 0.70 0.76 0.71 0.67 0.67 0.72 0.72 0.68 0.66
0.01 0.04 0.07 0.08 0.08 0.05 0.03 0.05 0.05 0.03 0.02 0.02 0.01 0.01 0.02 0.03 0.04 0.05 0.04 0.03 0.03 0.02 0.02 0.01 0.01 0.01 0.00 0.00 0.01 0.02 0.06 0.13 0.14 0.19 0.38 0.52 0.64 0.65 0.64 0.62 0.68 0.74 0.74 0.78 0.84 0.79 0.71 0.68 0.68
0.01 0.03 0.09 0.10 0.11 0.09 0.06 0.06 0.06 0.06 0.04 0.03 0.04 0.05 0.06 0.10 0.13 0.12 0.09 0.06 0.03 0.02 0.02 0.01 0.00 0.00 0.00 0.00 0.01 0.02 0.04 0.10 0.12 0.12 0.26 0.42 0.45 0.46 0.48 0.53 0.62 0.71 0.75 0.80 0.85 0.84 0.79 0.73 0.68
0.01 0.02 0.04 0.07 0.07 0.06 0.06 0.07 0.11 0.09 0.07 0.07 0.09 0.10 0.14 0.20 0.25 0.26 0.22 0.15 0.05 0.02 0.02 0.02 0.02 0.02 0.01 0.02 0.03 0.02 0.03 0.06 0.08 0.09 0.10 0.17 0.26 0.27 0.27 0.34 0.45 0.56 0.64 0.70 0.74 0.77 0.79 0.74 0.67
0.02 0.03 0.05 0.11 0.17 0.15 0.10 0.15 0.18 0.16 0.13 0.15 0.18 0.22 0.25 0.30 0.35 0.37 0.31 0.17 0.07 0.03 0.02 0.03 0.03 0.04 0.05 0.12 0.10 0.04 0.02 0.02 0.04 0.08 0.12 0.13 0.18 0.23 0.27 0.30 0.35 0.41 0.50 0.60 0.65 0.69 0.73 0.68 0.61
0.08 0.11 0.14 0.19 0.21 0.26 0.29 0.37 0.34 0.27 0.24 0.23 0.25 0.32 0.38 0.43 0.45 0.41 0.34 0.23 0.12 0.05 0.03 0.04 0.03 0.04 0.08 0.18 0.21 0.12 0.04 0.04 0.09 0.11 0.11 0.18 0.26 0.30 0.25 0.27 0.36 0.35 0.38 0.45 0.55 0.67 0.77 0.70 0.64
0.20 0.31 0.38 0.47 0.45 0.37 0.43 0.52 0.39 0.27 0.23 0.21 0.19 0.18 0.20 0.28 0.29 0.30 0.27 0.19 0.10 0.05 0.03 0.04 0.05 0.05 0.07 0.12 0.14 0.07 0.04 0.05 0.11 0.15 0.10 0.11 0.15 0.16 0.16 0.20 0.26 0.29 0.35 0.41 0.50 0.61 0.68 0.68 0.61